TimeCDT,TemperatureF,Dew PointF,Humidity,Sea Level PressureIn,VisibilityMPH,Wind Direction,Wind SpeedMPH,Gust SpeedMPH,PrecipitationIn,Events,Conditions,WindDirDegrees,DateUTC
12:15 AM,52.7,38.7,59,29.90,10.0,South,18.4,28.8,N/A,,Overcast,190,2012-10-13 05:15:00
12:54 AM,51.1,39.7,65,29.88,10.0,South,10.4,25.3,N/A,,Overcast,190,2012-10-13 05:54:00
1:14 AM,51.3,39.4,64,29.88,10.0,SSW,12.7,23.0,N/A,,Overcast,200,2012-10-13 06:14:00
1:35 AM,51.3,38.7,62,29.87,10.0,SSW,9.2,17.3,N/A,,Overcast,200,2012-10-13 06:35:00
1:55 AM,50.7,38.7,63,29.85,10.0,South,9.2,16.1,N/A,,Mostly Cloudy,180,2012-10-13 06:55:00
2:15 AM,50.2,39.0,66,29.84,10.0,South,10.4,-,N/A,,Scattered Clouds,170,2012-10-13 07:15:00
2:35 AM,49.6,38.7,66,29.83,10.0,South,6.9,-,N/A,,Clear,170,2012-10-13 07:35:00
2:54 AM,49.5,38.8,67,29.81,10.0,SSE,5.8,-,N/A,,Clear,160,2012-10-13 07:54:00
3:14 AM,48.6,38.5,68,29.80,10.0,SSE,5.8,-,N/A,,Clear,160,2012-10-13 08:14:00
3:35 AM,47.5,38.5,71,29.79,10.0,SSE,6.9,-,N/A,,Clear,150,2012-10-13 08:35:00
3:54 AM,48.4,39.2,71,29.80,10.0,SSE,6.9,-,N/A,,Clear,150,2012-10-13 08:54:00
4:14 AM,48.4,39.4,71,29.78,10.0,SSE,6.9,-,N/A,,Clear,150,2012-10-13 09:14:00
4:34 AM,49.3,40.3,71,29.78,10.0,SSE,5.8,-,N/A,,Clear,150,2012-10-13 09:34:00
4:55 AM,48.9,41.0,74,29.79,10.0,SSE,9.2,-,N/A,,Clear,160,2012-10-13 09:55:00
5:14 AM,49.1,41.7,76,29.77,10.0,South,8.1,-,N/A,,Clear,170,2012-10-13 10:14:00
5:55 AM,49.3,42.3,77,29.76,10.0,Calm,Calm,-,N/A,,Clear,0,2012-10-13 10:55:00
6:15 AM,49.3,42.6,78,29.76,10.0,Calm,Calm,-,N/A,,Clear,0,2012-10-13 11:15:00
6:34 AM,48.4,42.4,80,29.75,10.0,Calm,Calm,-,N/A,,Clear,0,2012-10-13 11:34:00
6:54 AM,46.8,41.4,81,29.75,10.0,SSE,6.9,-,N/A,,Clear,160,2012-10-13 11:54:00
7:14 AM,48.2,42.8,82,29.74,10.0,SSE,6.9,-,N/A,,Scattered Clouds,160,2012-10-13 12:14:00
7:35 AM,48.2,42.8,82,29.73,10.0,SSE,8.1,-,N/A,,Clear,160,2012-10-13 12:35:00
7:54 AM,47.8,42.8,83,29.72,7.0,SSE,6.9,-,N/A,,Scattered Clouds,150,2012-10-13 12:54:00
8:14 AM,47.7,43.0,84,29.71,7.0,SSE,4.6,-,N/A,,Mostly Cloudy,150,2012-10-13 13:14:00
8:54 AM,51.8,46.4,82,29.71,7.0,South,8.1,-,N/A,,Overcast,180,2012-10-13 13:54:00
9:34 AM,53.2,47.5,81,29.71,5.0,SSW,6.9,-,N/A,,Haze,200,2012-10-13 14:34:00
9:55 AM,54.0,47.7,79,29.71,5.0,SW,5.8,-,N/A,,Haze,230,2012-10-13 14:55:00
10:34 AM,55.9,48.2,75,29.71,7.0,SW,8.1,-,N/A,,Overcast,230,2012-10-13 15:34:00
10:55 AM,56.3,48.2,74,29.70,7.0,WSW,9.2,-,N/A,,Overcast,240,2012-10-13 15:55:00
11:15 AM,57.9,48.4,71,29.69,7.0,SW,6.9,-,N/A,,Overcast,230,2012-10-13 16:15:00
11:34 AM,58.8,48.4,68,29.69,7.0,SSW,4.6,-,N/A,,Overcast,210,2012-10-13 16:34:00
11:55 AM,59.5,48.2,66,29.68,7.0,West,3.5,-,N/A,,Overcast,280,2012-10-13 16:55:00
12:14 PM,60.6,48.2,64,29.68,7.0,Calm,Calm,-,N/A,,Overcast,0,2012-10-13 17:14:00
12:34 PM,60.6,48.2,64,29.69,7.0,South,4.6,-,N/A,,Overcast,180,2012-10-13 17:34:00
12:55 PM,60.8,48.2,63,29.68,7.0,SE,4.6,-,N/A,,Overcast,130,2012-10-13 17:55:00
1:14 PM,61.7,48.4,62,29.67,7.0,SE,3.5,-,N/A,,Overcast,130,2012-10-13 18:14:00
1:34 PM,63.0,48.2,59,29.67,7.0,Calm,Calm,-,N/A,,Scattered Clouds,0,2012-10-13 18:34:00
1:55 PM,63.3,48.2,58,29.67,7.0,NNW,4.6,-,N/A,,Clear,330,2012-10-13 18:55:00
2:14 PM,63.0,47.7,57,29.67,7.0,NW,3.5,-,N/A,,Clear,310,2012-10-13 19:14:00
2:35 PM,63.7,47.7,56,29.67,7.0,West,4.6,-,N/A,,Clear,280,2012-10-13 19:35:00
2:54 PM,63.7,47.5,56,29.66,10.0,NW,6.9,-,N/A,,Clear,310,2012-10-13 19:54:00
3:14 PM,63.5,47.1,55,29.66,10.0,NW,9.2,-,N/A,,Clear,310,2012-10-13 20:14:00
3:35 PM,62.8,47.3,57,29.66,10.0,North,4.6,-,N/A,,Scattered Clouds,350,2012-10-13 20:35:00
3:55 PM,63.5,47.3,56,29.66,10.0,NNW,4.6,-,N/A,,Scattered Clouds,340,2012-10-13 20:55:00
4:14 PM,62.8,46.6,55,29.67,10.0,NW,5.8,-,N/A,,Clear,320,2012-10-13 21:14:00
4:34 PM,62.6,46.6,56,29.67,10.0,North,4.6,-,N/A,,Clear,350,2012-10-13 21:34:00
4:55 PM,62.8,46.8,56,29.67,10.0,North,3.5,-,N/A,,Clear,360,2012-10-13 21:55:00
5:14 PM,62.6,46.8,56,29.68,10.0,North,3.5,-,N/A,,Clear,10,2012-10-13 22:14:00
5:55 PM,61.5,46.8,58,29.68,10.0,Calm,Calm,-,N/A,,Clear,0,2012-10-13 22:55:00
6:14 PM,60.8,47.1,61,29.69,7.0,Calm,Calm,-,N/A,,Clear,0,2012-10-13 23:14:00
6:34 PM,58.5,46.6,65,29.70,7.0,Calm,Calm,-,N/A,,Clear,0,2012-10-13 23:34:00
6:55 PM,56.5,46.4,69,29.70,5.0,Calm,Calm,-,N/A,,Haze,0,2012-10-13 23:55:00
7:34 PM,52.2,45.5,78,29.72,10.0,Calm,Calm,-,N/A,,Clear,0,2012-10-14 00:34:00
7:54 PM,50.0,43.0,77,29.73,7.0,West,3.5,-,N/A,,Clear,280,2012-10-14 00:54:00
9:15 PM,44.2,38.3,80,29.76,10.0,West,3.5,-,N/A,,Clear,260,2012-10-14 02:15:00
9:34 PM,44.8,38.7,79,29.76,10.0,West,3.5,-,N/A,,Clear,260,2012-10-14 02:34:00
9:54 PM,43.3,37.8,81,29.76,10.0,West,3.5,-,N/A,,Clear,270,2012-10-14 02:54:00
10:15 PM,43.9,39.0,83,29.76,10.0,Calm,Calm,-,N/A,,Clear,0,2012-10-14 03:15:00
11:14 PM,41.0,37.2,86,29.78,10.0,West,3.5,-,N/A,,Clear,280,2012-10-14 04:14:00
11:35 PM,40.1,36.9,88,29.79,7.0,West,5.8,-,N/A,,Clear,280,2012-10-14 04:35:00